logo Eve Who17,193,033 Characters
819,282 Corporations
8,904 Alliances

Home Pilots Corporations Alliances FAQ 

corp logo
alli logo
character image
Character:max ericshaun [CEO]
Corporation:The Suicide Express
Alliance:Sev3rance
Sec. Status:-1.2
Links:zKillboard
EveSkillBoard
Eve-Search
Last Updated: 2019-02-16 19:36:48 | 903261036
Corp. History
 NameJoinedLeft
corp logoThe Suicide Express2018/12/22 06:02
corp logoMecha Enterprises Fleet2018/11/26 04:502018/12/22 06:01
corp logoThe Suicide Express2018/04/19 03:522018/11/26 04:49
corp logoBig Blue Test Icicles2018/03/10 23:532018/04/19 03:51
corp logoDeep Core Mining Inc.2018/03/10 23:532018/03/10 23:52
corp logoThe Suicide Express2016/04/10 03:052018/03/10 23:52
corp logoDeep Core Mining Inc.2015/07/21 17:182016/04/10 03:04
corp logoEmpire Assault Corp2015/05/18 01:532015/07/21 17:17
corp logoThe Suicide Express2014/07/01 01:512015/05/18 01:52
corp logoTempest Legion2014/04/28 02:172014/07/01 01:50
corp logoDeep Core Mining Inc.2014/04/28 02:162014/04/28 02:16
corp logoThe Suicide Express2013/08/05 23:562014/04/28 02:15
corp logoEkchuah's Shrine Comporium2013/05/29 01:272013/08/05 23:55
corp logoeHarmony Inc.2012/08/29 03:262013/05/29 01:26
corp logoTHORN Syndicate2012/08/17 01:412012/08/29 03:25
corp logoThe Suicide Express2012/01/29 05:262012/08/17 01:40
corp logoS0utherN Comfort2011/12/22 01:192012/01/29 05:25
corp logoThe Suicide Express2011/03/15 00:452011/12/22 01:18
corp logoAEROSPACE SHIPWRIGHT SERVICES LLC2011/03/07 23:032011/03/15 00:44
corp logoThe Suicide Express2011/02/07 00:262011/03/07 23:02
corp logoCrescent Devils2010/10/28 01:082011/02/07 00:25
corp logoThe Maverick Navy2010/09/17 00:432010/10/28 01:07
corp logoEndless Possibilities Inc.2009/11/23 00:382010/09/17 00:42
corp logoNeh'bu Kau Beh'Hude2009/09/08 00:452009/11/23 00:37
corp logoBlackwind Securities2009/03/18 04:112009/09/08 00:44
corp logoMean Monkey2009/02/24 03:162009/03/18 04:10
corp logoW4R M0NGERS2009/01/25 17:522009/02/24 03:15
corp logoBlackwind Securities2008/12/02 02:192009/01/25 17:51
corp logoW4R M0NGERS2008/11/13 02:372008/12/02 02:18
corp logoCore Element2008/10/20 02:472008/11/13 02:36
corp logoW4R M0NGERS2008/10/15 00:212008/10/20 02:46
corp logoState Protectorate2008/10/13 22:212008/10/15 00:20
corp logoOf Daggs And Rabbits2008/09/07 18:272008/10/13 22:20
corp logoW4R M0NGERS2008/08/05 22:142008/09/07 18:26
corp logoWandering Stars2007/10/29 02:242008/08/05 22:13
corp logoVastatio Peccatus2007/07/15 16:402007/10/29 02:23
corp logoH3R3T1C's2007/06/29 23:542007/07/15 16:39
corp logoDeep Core Mining Inc.2007/06/29 23:522007/06/29 23:53
corp logoperfidiosus eversor2007/02/12 20:002007/06/29 23:51
corp logoDeep Core Mining Inc.2007/02/12 19:462007/02/12 19:59
corp logoHart Foundation2006/09/17 01:522007/02/12 19:45
corp logoState War Academy2006/09/16 18:582006/09/17 01:51


Any pilots, corporations, or alliances that relate to actual people or entities are purely coincidental.
7q/131ms Disclaimer A / C Brought to you by: Squizz Caphinator Forum Thread
EVE Online and the EVE logo are the registered trademarks of CCP hf. All rights are reserved worldwide. All other trademarks are the property of their respective owners. EVE Online, the EVE logo, EVE and all associated logos and designs are the intellectual property of CCP hf. All artwork, screenshots, characters, vehicles, storylines, world facts or other recognizable features of the intellectual property relating to these trademarks are likewise the intellectual property of CCP hf. CCP hf. has granted permission to evewho.com to use EVE Online and all associated logos and designs for promotional and information purposes on its website but does not endorse, and is not in any way affiliated with, evewho.com. CCP is in no way responsible for the content on or functioning of this website, nor can it be liable for any damage arising from the use of this website.